Skip Page Navigation
NASA JPL Caltech
NASA Logo - Jet Propulsion Laboratory + View the NASA Portal
+ Center for Near-Earth Object Studies
JPL Home Earth Solar System Stars & Galaxies Technology
JPL Solar System Dynamics
BODIES ORBITS EPHEMERIDES TOOLS PHYSICAL DATA DISCOVERY FAQ SITE MAP
JPL Small-Body Database Browser
Search: [ help ]  
105809 (2000 SJ136)
Classification: Main-belt Asteroid          SPK-ID: 2105809
Ephemeris | Orbit Diagram | Orbital Elements | Mission Design | Physical Parameters | Discovery Circumstances | Close-Approach Data ]

[ show orbit diagram ]
Orbital Elements at Epoch 2459000.5 (2020-May-31.0) TDB
Reference: JPL 14 (heliocentric ecliptic J2000)
 Element Value Uncertainty (1-sigma)   Units 
e .1538882852584608 5.8726e-08  
a 3.157309370501981 2.5757e-08 au
q 2.671436445444961 1.8384e-07 au
i 4.933192121827807 5.3251e-06 deg
node 310.3629442754823 7.1843e-05 deg
peri 86.58485068938504 7.3826e-05 deg
M 161.7269343385072 1.8942e-05 deg
tp 2458079.935997951637
(2017-Nov-22.43599795)
0.00010278 TDB
period 2049.151813165257
5.61
2.5075e-05
6.865e-08
d
yr
n .175682444652024 2.1498e-09 deg/d
Q 3.643182295559002 2.9721e-08 au
  Orbit Determination Parameters
   # obs. used (total)      476  
   data-arc span      7157 days (19.59 yr)  
   first obs. used      2000-09-22  
   last obs. used      2020-04-27  
   planetary ephem.      DE431  
   SB-pert. ephem.      SB431-N16  
   condition code      0  
   norm. resid. RMS      .61456  
   source      ORB  
   producer      Otto Matic  
   solution date      2020-May-20 18:33:24  

Additional Information
 Earth MOID = 1.68444 au 
 Jupiter MOID = 1.83018 au 
 T_jup = 3.182 
[ hide covariance matrix ]
Orbital Elements at Epoch 2457238.5 (2015-Aug-04.0) TDB
Reference: JPL 14 (heliocentric ecliptic J2000)
 Element Value Uncertainty (1-sigma)   Units 
e .1538433144587534 5.8567e-08  
q 2.672055782995944 1.8334e-07 au
tp 2458081.950142616389
(2017-Nov-24.45014262)
0.00010306 TDB
node 310.3760114050298 7.1848e-05 deg
peri 87.12464327108205 7.3848e-05 deg
i 4.932807278226515 5.3241e-06 deg
  Orbit Determination Parameters
   # obs. used (total)      476  
   data-arc span      7157 days (19.59 yr)  
   first obs. used      2000-09-22  
   last obs. used      2020-04-27  
   planetary ephem.      DE431  
   SB-pert. ephem.      SB431-N16  
   condition code      0  
   norm. resid. RMS      .61456  
   source      ORB  
   producer      Otto Matic  
   solution date      2020-May-20 18:33:24  

Additional Information
 Jupiter MOID = 1.83018 au 
 T_jup = 3.182 
Orbit Covariance (6×6)
  e q tp node peri i
e 3.430143030308318E-15 -1.066323363224669E-14 -1.199761911219649E-12 -1.508157996373095E-15 -3.292358608089356E-13 1.270032016941406E-16
q -1.066323363224669E-14 3.361173347397026E-14 4.674872926344278E-12 1.005194601822857E-14 1.139265059052942E-12 4.28608244284263E-17
tp -1.199761911219649E-12 4.674872926344278E-12 1.062179676605711E-8 -3.851099497878248E-12 1.806524549248285E-9 -1.186286142438594E-13
node -1.508157996373095E-15 1.005194601822857E-14 -3.851099497878248E-12 5.16210607640022E-9 -5.14327964277807E-9 1.330580267010152E-10
peri -3.292358608089356E-13 1.139265059052942E-12 1.806524549248285E-9 -5.14327964277807E-9 5.453460684456785E-9 -1.326262036891553E-10
i 1.270032016941406E-16 4.28608244284263E-17 -1.186286142438594E-13 1.330580267010152E-10 -1.326262036891553E-10 2.83461528721117E-11

Ephemeris | Orbit Diagram | Orbital Elements | Mission Design | Physical Parameters | Discovery Circumstances | Close-Approach Data ]

Physical Parameter Table
Parameter Symbol Value Units Sigma Reference Notes
absolute magnitude H 15.2   n/a MPO338018  

105809 (2000 SJ136)          Discovered 2000-Sep-23 by LINEAR at Socorro
Reference: 20051019/Numbers.arcLast Updated: 2005-10-26

[ hide close-approach data ]
Close-Approach Data   ...sorted by Date/Time (TDB)
Date/Time (TDB) Time Uncertainty
(days_HH:MM)
Body Nominal Distance (au) Minimum Distance (au) Maximum Distance (au) V-relative (km/s) V-infinity (km/s) JD (TDB) Time Uncertainty (minutes) Semi-major axis (km) Semi-minor axis (km) range-LOV angle (deg) N-sigma BP Orbit Ref. Reference Modified
1937-Mar-29 08:06 00:03 Jupiter 1.96068526176945 1.96068438293217 1.96068614060673 3.51564483498601 3.39053859925684 2428621.837540609 3.41943678323201 85.4656966103849 27.8687630711384 -82.3251131386828 1503673.19931755 T 14 CATAB v2.0f-lin.ifort 2020-May-20 18:33:27 2020-May-20 18:33
1947-Dec-24 03:56 00:03 Jupiter 1.88695191714528 1.88695133511713 1.88695249917331 2.58038888750384 2.40013308377541 2432543.663570938 2.9509238318906 106.166150794222 14.3639382279568 80.8138378249524 2020251.3847029 T 14 CATAB v2.0f-lin.ifort 2020-May-20 18:33:27 2020-May-20 18:33
1958-Sep-16 15:31 00:02 Jupiter 1.89678043756992 1.89677983850939 1.89678103663023 2.17295239729239 1.95668241718152 2436463.146774319 2.42127899473919 78.8594301485634 11.9915373007787 80.9183836257044 2068332.18699199 T 14 CATAB v2.0f-lin.ifort 2020-May-20 18:33:27 2020-May-20 18:33
1969-Jun-12 00:49 00:02 Jupiter 1.97085168369768 1.97085102242854 1.97085234496716 2.60034100724424 2.42944924302819 2440384.533946138 1.85330821770992 116.224519117238 18.7581899888575 89.1899036469124 2074949.16561282 T 14 CATAB v2.0f-lin.ifort 2020-May-20 18:33:27 2020-May-20 18:33
2055-Jul-24 16:26 00:02 Jupiter 1.90556713943444 1.90556671549415 1.90556756337472 3.13835441666699 2.99337111385213 2471838.184521436 1.60947873553955 77.5662353288974 14.5795497744468 83.0611316724263 2820845.34586771 T 14 CATAB v2.0f-lin.ifort 2020-May-20 18:33:27 2020-May-20 18:33
2066-Apr-18 07:25 00:02 Jupiter 1.86795018773435 1.8679495902395 1.86795078522952 2.36597730959893 2.16585966553352 2475758.809166146 2.13728633136582 83.042426033055 15.8656353315937 70.5079329963492 2471169.38497064 T 14 CATAB v2.0f-lin.ifort 2020-May-20 18:33:27 2020-May-20 18:33
2077-Jan-09 11:03 00:03 Jupiter 1.92089975989554 1.9208989256968 1.92090059409471 2.23880580932569 2.03232615798682 2479677.960514504 2.68465156942968 95.8552111576986 8.55555961243108 82.2241103336671 1931880.64693186 T 14 CATAB v2.0f-lin.ifort 2020-May-20 18:33:27 2020-May-20 18:33
2163-Feb-18 09:59 00:06 Jupiter 1.95650180968349 1.95650046098664 1.95650315838 3.70651661682728 3.58781428904906 2511127.916192982 6.12999413764357 65.338812928396 46.8378977760467 67.2652980184573 932259.284043123 T 14 CATAB v2.0f-lin.ifort 2020-May-20 18:33:27 2020-May-20 18:33
2173-Nov-14 16:35 00:07 Jupiter 1.85972108764255 1.85972059089481 1.85972158439093 2.81321411146003 2.64636734866805 2515050.191043163 6.58645827205333 204.373559208271 13.0563951110791 82.6939402593181 2095525.07933221 T 14 CATAB v2.0f-lin.ifort 2020-May-20 18:33:27 2020-May-20 18:33
2184-Aug-08 22:19 00:07 Jupiter 1.86997174635195 1.86997062887457 1.86997286383464 2.24731917694548 2.03581024695022 2518970.429609702 7.17170523415675 200.911476973394 17.0280647718783 68.6982760102572 2185110.04777565 T 14 CATAB v2.0f-lin.ifort 2020-May-20 18:33:27 2020-May-20 18:33
2195-May-03 05:54 00:08 Jupiter 1.96456486127398 1.96456311885543 1.9645666037066 2.41756340662458 2.23210941541846 2522889.746049409 7.69280544040964 309.304143666081 11.7489196648804 86.0237222311367 1933135.95425023 T 14 CATAB v2.0f-lin.ifort 2020-May-20 18:33:27 2020-May-20 18:33

Alternate Designations
 2000 SJ136 = 2002 AF150 
Ephemeris | Orbit Diagram | Orbital Elements | Mission Design | Physical Parameters | Discovery Circumstances | Close-Approach Data ]
ABOUT SSD CREDITS/AWARDS PRIVACY/COPYRIGHT GLOSSARY LINKS
FirstGov 2020-Jul-13 01:29 UT
(server date/time)  
NASA Home Page
Site Manager:   Ryan S. Park
Webmaster  Alan B. Chamberlin